Temp
68 68 66 64 63 63 61 59 58 59 58 57 55 54 52 52 51 50 50 51 50 49 49 47 45 44 41 41 41 40 39 38 35 39 41 44 43 45 48 48 50 49 50
68 65 63 62 60 59 58 58 58 55 55 54 53 52 51 49 48 49 49 49 48 47 46 45 44 47 39 39 38 37 37 37 36 36 41 44 43 44 44 46 48 50 47
63 63 61 60 58 57 56 57 54 52 50 50 50 48 47 47 47 48 49 48 47 45 45 43 42 41 38 37 38 38 38 41 38 37 40 44 41 45 46 45 44 43 47
61 60 58 57 56 55 55 53 50 50 49 48 47 46 46 46 47 47 47 45 45 45 44 43 43 42 40 40 40 37 38 37 37 36 37 39 44 45 44 40 39 44 43
58 58 56 56 55 54 52 48 48 49 48 46 46 45 44 45 46 43 44 43 42 42 43 44 44 48 50 47 41 37 35 34 34 37 37 40 40 38 37 39 38 40 41
55 55 54 54 52 50 48 48 47 46 45 45 44 44 43 45 47 48 45 42 42 41 40 40 42 44 44 46 46 46 43 36 36 37 37 35 36 37 38 36 36 36 35
55 54 53 51 49 47 47 46 45 44 44 43 42 43 41 41 46 46 47 42 40 39 38 38 41 43 41 39 41 42 41 43 43 40 36 36 35 37 37 36 36 36 36
55 54 52 50 48 47 45 44 44 45 43 42 41 40 40 43 44 44 45 41 39 39 39 37 36 37 39 39 36 36 36 36 37 42 38 39 39 39 38 38 37 37 38
53 52 51 51 48 46 45 45 45 44 43 41 41 39 38 38 43 43 42 39 38 38 40 39 38 37 42 42 36 35 36 37 42 43 43 42 41 41 41 38 35 33 34
52 52 52 51 48 46 46 44 45 44 43 43 40 38 43 37 43 42 40 39 37 37 37 37 44 40 42 42 35 32 34 36 36 38 39 40 40 40 41 38 35 32 33
52 52 51 50 48 47 46 45 44 43 41 39 37 36 36 37 37 42 42 37 36 37 37 36 37 42 41 41 41 37 36 38 37 38 37 38 38 38 39 39 38 36 34
51 50 50 50 50 48 46 44 43 41 38 35 34 33 34 34 41 41 41 41 41 37 34 35 37 40 40 40 39 39 39 39 38 37 36 35 35 36 37 38 39 40 39
49 47 47 47 47 47 44 43 41 39 37 34 34 32 32 33 33 41 41 41 43 37 37 41 40 39 38 37 39 39 37 34 36 34 33 34 36 37 38 39 40 41 41
45 44 45 43 42 43 45 44 42 39 36 36 34 31 31 31 32 33 35 36 41 38 38 36 39 37 38 37 34 34 33 34 34 33 33 35 37 37 36 38 37 37 37
43 43 42 42 40 39 39 41 42 37 38 34 31 32 34 33 33 36 36 36 36 38 34 31 31 29 30 30 31 31 30 31 30 33 33 34 35 35 35 37 37 36 35
43 43 42 41 40 40 40 36 39 39 39 38 38 36 34 38 39 40 40 39 38 38 31 27 28 28 28 28 28 28 29 30 29 32 33 33 33 33 34 36 37 35 34
42 42 41 42 41 40 39 38 34 35 40 39 38 39 39 39 39 39 39 38 37 36 29 27 27 27 27 27 27 26 26 28 28 28 30 32 33 33 34 35 36 36 35
43 42 41 41 38 35 36 36 36 37 35 34 37 39 39 39 39 39 38 37 32 32 27 27 27 27 27 27 27 26 26 27 27 27 27 30 33 32 33 34 34 34 34
41 39 37 35 34 34 34 33 33 34 33 33 36 38 38 38 38 37 37 31 29 28 27 27 26 26 26 26 26 25 25 26 26 25 27 29 32 33 33 34 34 34 34
40 39 38 37 36 35 35 35 33 33 32 33 34 32 33 36 33 31 31 31 29 27 27 26 26 26 26 25 25 25 25 26 26 26 27 28 31 34 34 34 34 33 33
40 40 36 39 38 37 35 34 33 32 31 32 31 32 32 34 31 30 29 29 28 28 27 25 24 24 25 25 25 25 25 26 25 26 26 28 31 33 35 35 34 34 34
41 41 40 39 39 37 35 34 33 33 33 33 31 31 33 32 31 30 29 29 29 28 27 26 24 24 24 25 25 25 24 25 25 26 26 27 31 33 35 35 34 34 33
43 41 39 38 37 35 36 34 33 33 33 32 33 33 33 31 30 30 30 29 28 27 27 26 25 23 25 26 26 25 23 25 25 25 25 27 30 32 34 34 34 33 33
44 42 40 38 37 36 36 33 32 33 34 33 33 32 31 30 31 30 29 28 28 27 27 26 25 25 27 27 27 27 27 27 27 27 27 28 30 32 33 34 35 34 33
42 42 40 38 38 36 34 34 33 33 34 34 32 31 30 30 30 30 29 28 27 27 27 25 25 27 27 28 28 27 27 27 28 29 28 30 32 32 32 34 34 35 34
42 41 39 38 36 36 35 34 33 33 32 32 31 30 30 30 29 29 28 28 27 27 27 26 27 28 28 28 28 28 27 27 28 29 30 31 31 32 33 33 34 34 34
MSLP
1004.60 1004.98 1005.47 1006.45 1007.36 1008.42 1010.12 1011.26 1012.12 1012.99 1013.44 1014.16 1015.09 1016.01 1016.38 1016.54 1016.80 1016.70 1016.77 1017.63 1017.87 1018.03 1018.34 1018.44 1018.80 1018.81 1018.81 1018.68 1018.45 1018.42 1018.18 1017.92 1017.54 1016.42 1015.72 1014.68 1014.01 1013.45 1012.80 1012.39 1011.76 1011.15 1010.45
1004.37 1004.71 1005.75 1006.82 1007.58 1008.89 1010.43 1011.26 1012.37 1013.08 1014.10 1014.71 1015.65 1016.70 1017.18 1017.14 1017.07 1017.07 1017.45 1018.23 1018.23 1018.50 1019.26 1019.45 1019.47 1019.06 1019.01 1018.79 1018.58 1018.48 1018.11 1017.54 1017.27 1016.56 1015.64 1014.81 1014.28 1013.83 1013.32 1012.59 1011.91 1011.45 1010.80
1004.06 1004.53 1005.39 1006.65 1007.94 1009.16 1010.42 1011.83 1013.05 1013.97 1014.66 1015.58 1016.80 1017.22 1017.76 1017.68 1017.51 1017.47 1017.77 1018.54 1018.99 1019.16 1019.61 1019.76 1019.65 1019.34 1019.35 1019.08 1018.74 1018.71 1018.27 1017.50 1017.06 1016.81 1015.92 1014.96 1014.65 1013.98 1013.22 1012.92 1012.39 1011.61 1010.93
1004.99 1005.52 1006.45 1006.84 1008.07 1009.26 1011.26 1013.09 1013.58 1014.61 1015.33 1016.62 1017.35 1017.72 1018.08 1018.19 1018.01 1018.06 1018.38 1019.10 1019.47 1019.65 1019.94 1019.49 1019.55 1019.31 1019.48 1019.27 1018.88 1018.81 1018.34 1017.72 1017.12 1016.80 1016.08 1015.42 1014.95 1014.45 1014.21 1013.52 1012.14 1011.68 1010.73
1006.21 1007.15 1007.62 1007.98 1008.60 1010.58 1012.47 1013.33 1013.61 1015.35 1016.84 1017.61 1017.39 1017.86 1018.11 1018.51 1018.68 1019.02 1019.01 1019.66 1019.71 1019.95 1019.87 1019.57 1019.44 1019.44 1019.70 1019.28 1019.12 1019.07 1018.35 1017.89 1017.51 1016.92 1016.42 1015.83 1015.44 1014.86 1014.48 1014.10 1013.27 1012.11 1010.80
1006.74 1008.27 1008.64 1008.95 1010.68 1012.44 1013.38 1015.05 1015.03 1017.79 1018.57 1017.54 1017.63 1018.39 1017.95 1018.52 1019.08 1019.32 1019.78 1020.01 1020.18 1020.01 1020.01 1019.77 1019.89 1019.88 1020.07 1019.76 1019.46 1019.13 1018.41 1017.91 1017.89 1017.12 1016.70 1016.65 1016.06 1015.57 1014.97 1014.43 1013.74 1012.77 1011.79
1007.05 1007.53 1009.63 1010.40 1011.97 1012.56 1015.34 1016.51 1018.07 1018.77 1018.33 1018.45 1018.37 1017.98 1018.38 1019.02 1019.17 1019.97 1020.24 1020.38 1020.72 1020.58 1020.29 1020.29 1020.37 1020.42 1020.23 1020.17 1019.75 1019.35 1019.04 1018.62 1018.36 1017.51 1017.14 1016.89 1016.34 1015.89 1015.30 1014.51 1014.04 1013.49 1012.77
1008.51 1007.81 1009.71 1012.18 1012.52 1015.10 1016.18 1017.05 1018.29 1019.57 1018.10 1018.54 1018.15 1018.59 1019.54 1019.77 1019.80 1019.98 1020.41 1020.89 1021.20 1020.79 1020.78 1020.80 1021.03 1020.87 1020.54 1020.05 1020.10 1019.58 1019.16 1019.02 1018.21 1017.37 1017.22 1016.87 1016.50 1015.83 1015.33 1014.73 1014.22 1013.61 1012.61
1008.23 1009.53 1009.84 1011.50 1013.39 1015.01 1016.60 1018.21 1019.73 1018.07 1018.53 1019.46 1019.20 1019.94 1020.62 1020.71 1020.54 1020.37 1020.99 1021.30 1021.57 1021.41 1020.93 1021.08 1021.15 1020.84 1020.86 1020.20 1020.14 1020.07 1019.25 1018.95 1017.90 1017.28 1017.06 1016.69 1016.22 1015.70 1015.09 1014.58 1013.89 1013.60 1012.68
1010.36 1010.30 1011.32 1012.76 1014.14 1015.88 1017.29 1017.98 1017.96 1018.11 1020.04 1020.41 1020.74 1021.00 1020.95 1021.38 1021.31 1021.30 1021.53 1021.67 1021.74 1022.24 1021.22 1021.72 1021.35 1021.03 1021.09 1020.60 1020.69 1020.52 1019.97 1019.00 1017.96 1017.35 1017.09 1016.43 1015.94 1015.37 1014.98 1014.62 1014.24 1013.85 1013.27
1010.71 1011.52 1012.37 1013.59 1014.62 1015.57 1016.61 1017.27 1018.46 1019.70 1020.56 1021.10 1021.72 1021.78 1021.71 1021.98 1022.29 1021.89 1022.02 1021.82 1022.26 1022.21 1022.08 1021.95 1021.31 1021.49 1021.36 1021.36 1021.04 1020.71 1020.30 1019.23 1018.36 1017.77 1017.20 1016.54 1015.91 1015.42 1014.89 1014.26 1013.87 1013.79 1013.10
1011.44 1012.28 1013.50 1014.32 1015.18 1016.14 1016.93 1018.62 1019.83 1020.73 1021.09 1021.81 1022.12 1022.33 1022.71 1023.14 1022.65 1022.72 1022.27 1022.46 1022.48 1022.45 1022.86 1022.02 1021.72 1021.92 1021.93 1021.77 1021.57 1021.16 1020.22 1019.38 1018.68 1017.96 1017.35 1016.62 1016.06 1015.58 1014.95 1014.24 1013.35 1012.82 1012.38
1012.59 1013.87 1014.72 1015.63 1016.49 1017.48 1018.44 1019.75 1020.39 1021.22 1021.83 1022.08 1022.56 1023.71 1024.25 1023.86 1023.47 1023.10 1022.53 1023.17 1022.92 1022.87 1022.47 1022.26 1022.45 1022.78 1022.64 1022.37 1022.04 1021.31 1020.57 1019.93 1019.16 1018.45 1017.92 1017.38 1016.84 1016.07 1015.19 1014.25 1013.24 1012.18 1011.47
1014.23 1015.09 1015.71 1016.14 1017.55 1018.74 1019.33 1020.15 1020.68 1021.54 1022.27 1022.99 1024.01 1024.80 1024.41 1024.27 1024.02 1023.34 1024.17 1023.92 1023.19 1022.62 1022.83 1023.17 1023.66 1023.89 1023.30 1023.34 1022.43 1021.84 1021.27 1020.65 1020.09 1019.39 1018.66 1017.92 1017.01 1016.14 1015.31 1014.56 1013.62 1012.33 1011.36
1015.15 1015.83 1016.74 1017.83 1018.56 1019.52 1020.45 1020.98 1021.72 1022.30 1022.81 1023.49 1024.51 1024.28 1023.77 1024.03 1024.50 1024.30 1024.55 1023.84 1023.26 1023.54 1023.92 1024.62 1024.77 1024.54 1024.43 1023.81 1023.06 1022.52 1021.84 1021.10 1020.51 1019.82 1019.12 1018.34 1017.34 1016.42 1015.63 1014.78 1013.97 1012.86 1012.25
1015.95 1017.04 1017.88 1018.62 1019.68 1020.47 1021.21 1022.40 1022.74 1023.15 1023.80 1023.74 1023.91 1023.39 1023.65 1024.48 1024.39 1024.50 1024.36 1023.54 1024.30 1024.50 1025.39 1026.03 1025.96 1025.83 1025.39 1024.76 1024.14 1023.39 1022.55 1021.91 1021.43 1020.68 1019.59 1018.92 1017.90 1016.91 1015.94 1015.01 1014.19 1013.39 1012.48
1016.38 1017.43 1018.33 1019.39 1020.24 1020.85 1021.60 1022.52 1023.62 1024.37 1023.95 1024.03 1023.82 1024.12 1024.20 1024.53 1024.77 1024.65 1024.20 1024.92 1025.49 1025.88 1026.46 1026.66 1026.90 1026.53 1026.07 1025.64 1024.97 1024.31 1023.69 1022.97 1022.33 1021.44 1020.41 1019.34 1018.42 1017.40 1016.31 1015.39 1014.48 1013.72 1012.71
1017.46 1018.28 1019.17 1020.00 1020.74 1021.54 1022.55 1023.25 1023.46 1024.32 1024.69 1024.99 1024.43 1024.83 1024.50 1025.00 1024.94 1024.80 1025.32 1025.98 1026.66 1026.79 1027.31 1027.58 1027.29 1026.88 1026.49 1025.98 1025.39 1024.84 1024.19 1023.51 1022.85 1021.96 1021.01 1020.02 1018.90 1017.96 1016.73 1015.80 1015.00 1014.34 1013.48
1018.22 1019.34 1020.13 1020.97 1021.72 1022.36 1022.92 1023.48 1024.13 1024.80 1025.06 1024.93 1025.43 1025.12 1025.76 1025.22 1025.40 1026.13 1026.82 1027.43 1027.40 1027.93 1027.88 1027.66 1027.61 1027.34 1026.87 1026.30 1025.74 1025.24 1024.67 1023.97 1023.42 1022.67 1021.54 1020.53 1019.54 1018.49 1017.44 1016.54 1015.62 1014.87 1014.05
1018.64 1019.51 1020.20 1020.88 1021.80 1023.00 1023.70 1024.34 1024.27 1024.99 1025.30 1025.31 1025.79 1026.90 1026.07 1026.27 1026.86 1027.60 1028.18 1028.15 1028.32 1028.19 1027.97 1028.26 1028.14 1027.70 1027.29 1026.76 1026.24 1025.67 1025.09 1024.37 1023.74 1023.12 1022.15 1021.14 1020.15 1019.08 1018.03 1017.07 1016.17 1015.32 1014.54
1019.04 1020.01 1020.70 1021.53 1022.41 1023.33 1023.80 1024.32 1024.39 1025.05 1025.93 1026.38 1026.93 1026.79 1026.53 1027.11 1027.96 1028.79 1029.01 1028.79 1028.54 1028.48 1028.76 1028.73 1028.45 1028.18 1027.76 1027.17 1026.53 1026.02 1025.71 1025.19 1024.41 1023.66 1022.82 1021.77 1020.75 1019.67 1018.66 1017.73 1016.91 1016.05 1015.24
1019.68 1020.29 1021.41 1022.28 1022.90 1023.39 1023.94 1024.54 1024.73 1025.81 1027.06 1027.08 1027.09 1027.20 1027.29 1027.99 1028.72 1029.15 1029.14 1029.06 1029.11 1029.30 1029.13 1028.86 1028.93 1028.80 1028.29 1027.65 1027.17 1026.63 1026.32 1025.84 1024.98 1024.18 1023.39 1022.43 1021.39 1020.29 1019.25 1018.33 1017.53 1016.76 1015.95
1020.59 1020.97 1021.85 1022.91 1023.66 1024.26 1024.60 1024.71 1025.17 1026.08 1027.25 1027.39 1027.42 1027.91 1028.60 1028.85 1028.75 1029.29 1029.60 1029.73 1029.82 1029.48 1029.27 1029.31 1029.52 1029.26 1028.61 1028.06 1027.61 1027.43 1027.06 1026.37 1025.62 1024.84 1024.01 1023.03 1022.02 1021.06 1020.07 1019.19 1018.36 1017.57 1016.83
1020.61 1021.24 1021.85 1022.95 1023.81 1024.40 1024.95 1025.54 1026.24 1026.72 1027.32 1027.71 1028.40 1029.05 1028.56 1028.71 1029.14 1029.65 1030.13 1030.20 1030.03 1029.98 1029.84 1029.89 1029.89 1029.58 1028.94 1028.40 1027.92 1027.62 1027.32 1026.53 1025.71 1024.88 1024.17 1023.44 1022.64 1021.72 1020.88 1020.09 1019.33 1018.62 1017.89
1020.62 1021.54 1022.51 1023.49 1024.40 1025.16 1025.66 1026.10 1026.82 1027.30 1027.59 1028.34 1028.93 1028.66 1028.77 1029.22 1029.63 1030.22 1030.43 1030.53 1030.55 1030.47 1030.46 1030.47 1030.27 1029.82 1029.37 1028.79 1028.24 1027.75 1027.37 1026.61 1025.93 1025.11 1024.34 1023.68 1023.04 1022.30 1021.57 1020.89 1020.24 1019.60 1018.84
1021.07 1022.06 1022.90 1023.79 1024.56 1025.15 1025.79 1026.55 1027.20 1027.47 1028.09 1028.60 1028.86 1029.20 1029.33 1029.59 1030.05 1030.48 1030.76 1030.82 1030.89 1030.98 1031.05 1031.01 1030.66 1030.27 1029.74 1029.20 1028.72 1028.06 1027.60 1026.98 1026.36 1025.57 1024.84 1024.20 1023.60 1022.96 1022.25 1021.62 1020.99 1020.42 1019.86
Wind_Speed
13 12 14 14 16 15 13 13 12 10 11 11 10 9 8 7 5 7 7 7 8 9 8 8 6 5 4 3 3 2 2 1 3 4 3 6 5 8 10 8 10 10 9
15 14 16 16 17 17 15 15 13 13 11 11 11 9 7 6 6 7 10 7 9 9 7 6 5 5 5 4 3 5 3 3 1 8 6 6 6 7 7 12 10 9 9
14 17 15 16 18 17 16 14 13 13 13 12 9 8 5 6 7 8 9 8 8 8 6 5 5 5 5 4 4 5 5 4 3 4 8 6 3 8 12 9 11 11 9
11 13 16 17 19 19 17 13 14 13 13 10 7 7 6 5 7 8 8 7 7 6 5 6 5 6 6 6 6 5 6 5 5 5 6 7 7 9 8 10 13 9 11
13 10 14 15 19 18 16 17 16 13 10 8 10 8 6 6 5 6 7 7 7 6 5 5 7 13 16 13 4 5 5 4 4 7 8 8 8 9 9 7 9 11 11
21 17 10 18 18 17 16 16 16 11 8 10 10 6 8 6 9 12 8 6 6 6 5 7 6 10 11 16 15 13 12 7 7 6 5 8 9 8 8 7 7 7 7
21 23 15 19 15 20 15 14 12 10 9 10 8 10 11 7 11 10 10 6 6 6 6 6 5 5 8 6 11 12 10 12 11 7 7 7 9 9 9 10 9 8 6
11 22 23 17 18 14 14 13 11 7 11 9 11 11 9 7 11 11 12 7 5 6 6 6 5 5 7 7 7 7 6 6 6 7 5 7 8 9 7 7 9 10 9
19 17 21 20 19 17 15 12 9 12 11 10 10 10 8 7 12 12 9 6 5 5 5 5 4 5 9 11 7 8 9 8 11 15 13 13 13 14 12 6 5 7 4
12 17 19 18 18 17 15 13 12 12 10 8 10 8 14 8 13 11 6 4 7 3 6 5 7 7 12 15 7 6 10 11 11 10 8 8 9 9 13 5 5 6 4
15 16 17 16 16 15 14 12 11 11 10 10 9 6 8 8 8 12 9 5 4 4 5 4 4 11 14 15 13 10 10 10 11 8 7 7 8 8 7 6 6 6 6
16 17 16 15 12 12 16 12 10 10 10 7 7 6 6 5 10 11 12 10 8 7 3 4 6 13 14 15 12 17 17 13 8 8 8 9 10 10 10 9 9 7 8
16 15 14 13 13 12 13 12 9 7 7 6 7 5 3 3 5 11 14 10 10 5 4 12 15 13 12 10 18 20 15 8 8 8 9 8 8 9 11 10 9 9 9
15 13 12 14 13 10 8 8 8 7 6 5 5 3 3 4 4 6 5 5 10 10 12 9 10 10 13 11 10 10 8 9 10 9 9 8 8 8 8 8 8 10 8
13 12 12 10 10 10 8 5 6 4 5 6 4 4 5 6 2 2 4 4 7 10 8 5 5 5 7 7 7 8 8 8 9 9 8 10 8 8 9 8 8 7 7
13 10 9 9 8 8 9 8 16 11 10 9 6 6 5 4 10 12 15 18 16 13 6 4 5 5 6 7 7 8 8 11 9 9 9 9 9 10 10 9 8 8 9
13 11 9 10 8 9 9 10 10 5 12 11 12 12 10 12 15 16 19 18 15 8 6 5 4 6 6 6 7 6 7 8 8 7 9 10 9 9 11 10 10 10 10
12 15 9 8 8 7 8 8 7 8 7 3 9 8 15 15 15 15 14 10 6 7 5 4 5 5 5 6 7 7 7 8 9 8 9 10 10 10 11 11 10 11 11
10 8 8 7 7 8 7 7 6 5 5 5 6 10 9 16 17 15 12 5 4 4 3 5 4 4 5 5 6 6 6 7 8 8 9 9 10 10 10 11 10 12 12
10 14 10 9 9 7 6 6 6 5 5 5 6 3 2 7 6 5 4 4 4 3 4 4 4 4 5 6 6 6 7 8 9 9 9 9 10 10 10 11 10 11 11
8 9 9 8 8 7 5 5 5 6 5 5 3 2 6 8 5 4 3 3 4 4 4 3 4 4 5 5 5 7 7 8 8 9 9 9 10 11 10 9 10 10 10
8 9 7 6 5 5 5 5 6 6 5 6 4 4 9 6 5 4 4 4 4 4 3 4 4 4 4 6 6 7 7 8 9 9 10 9 9 11 11 11 11 11 11
7 8 7 5 5 6 6 6 7 6 5 5 5 6 4 4 5 5 5 4 3 4 4 5 4 4 5 5 6 6 6 8 9 7 8 9 9 10 10 11 12 12 12
9 9 9 6 5 6 7 6 5 6 7 6 5 4 4 5 5 6 5 3 4 5 5 4 4 6 6 7 7 7 7 8 7 7 8 7 8 10 9 10 12 13 11
9 9 8 8 8 7 7 6 6 6 6 6 4 4 5 5 6 5 4 4 4 5 6 5 4 6 8 11 12 13 13 15 11 11 7 9 10 12 10 8 10 11 11
9 9 8 7 7 7 7 7 6 6 6 5 5 5 5 6 5 5 4 4 4 5 5 4 5 9 10 9 12 14 15 16 14 15 8 8 9 9 10 11 13 9 13
Wind_Direction
175 162 143 136 126 118 119 113 110 118 104 100 90 84 79 82 82 81 77 63 71 69 59 65 64 45 23 5 11 354 358 302 269 293 273 301 311 325 329 330 325 320 325
163 143 134 133 119 117 122 118 119 105 95 94 88 89 84 82 77 84 77 76 79 76 67 62 44 33 23 14 11 350 323 311 252 300 300 317 315 335 324 327 331 332 322
143 135 130 124 119 114 109 114 108 97 89 80 90 91 86 80 88 80 88 86 86 87 87 70 31 32 23 4 358 355 330 334 307 302 308 324 322 325 339 344 331 324 322
119 122 128 125 118 112 108 106 104 92 96 97 87 89 84 82 76 80 89 87 89 94 89 68 43 42 34 7 359 341 339 340 345 330 317 327 333 360 331 333 329 332 321
84 94 115 105 107 103 109 107 90 90 94 118 110 93 89 78 76 88 86 90 97 98 65 58 50 42 30 21 7 338 351 357 343 342 344 338 336 339 342 332 317 321 322
98 71 78 98 92 100 105 87 93 104 123 94 87 104 91 84 96 94 104 104 94 84 73 51 43 37 19 24 22 11 11 2 345 342 342 327 319 323 332 328 325 334 339
117 103 91 73 96 90 94 108 108 101 100 94 88 78 67 62 98 110 110 94 86 79 66 54 46 27 17 1 6 7 356 353 353 340 328 323 318 332 324 326 327 318 306
106 120 112 122 104 105 107 99 97 125 93 90 78 67 65 57 75 96 110 89 79 73 65 63 67 26 4 10 346 344 347 321 324 347 325 318 313 320 314 306 309 303 295
129 125 121 127 119 120 110 113 136 95 79 70 70 69 69 44 57 77 91 88 73 45 51 51 66 31 352 10 3 347 353 346 349 351 344 339 332 330 330 322 342 332 318
115 116 116 121 122 121 127 122 101 88 93 83 73 57 67 53 51 67 78 87 64 22 46 33 32 23 357 11 6 346 353 346 346 343 337 339 341 333 337 333 317 310 298
112 110 107 109 111 113 110 98 97 98 94 80 79 56 56 53 42 61 68 70 75 52 38 17 17 13 5 12 11 5 350 340 339 342 339 343 347 340 333 327 314 287 283
105 102 103 106 109 106 104 103 105 98 88 83 83 62 37 25 55 54 66 73 71 71 44 40 37 29 20 11 9 359 356 354 351 351 349 354 350 342 332 323 313 298 267
99 97 100 100 98 103 110 112 104 92 94 83 80 74 59 17 38 56 65 70 68 71 61 57 42 24 10 9 8 8 360 356 353 354 353 345 337 324 320 322 317 323 303
103 104 102 90 90 95 102 111 109 102 94 95 103 120 95 63 44 39 44 55 61 58 46 39 32 22 27 12 7 3 356 1 358 348 339 327 325 336 335 334 330 340 329
101 95 92 93 95 89 69 84 110 57 119 132 153 155 97 67 19 106 113 80 64 53 49 27 17 4 8 1 360 356 354 0 1 350 346 340 339 341 342 333 335 338 338
110 107 106 104 107 111 112 89 53 86 93 94 97 99 56 104 108 98 80 67 58 47 45 27 19 8 7 357 355 349 355 357 352 341 346 343 341 341 336 340 343 346 335
114 114 108 111 117 116 109 115 113 51 74 67 68 85 105 110 96 89 78 68 54 52 56 31 19 10 358 349 348 347 344 340 329 341 342 341 342 339 339 344 346 346 341
107 111 113 113 115 112 123 125 118 123 113 75 38 91 87 87 85 81 79 66 49 38 38 31 22 8 358 353 349 348 341 342 342 343 340 338 347 343 342 348 347 344 340
115 115 117 113 114 111 111 108 112 111 110 102 92 62 74 80 72 66 65 79 77 52 27 33 7 359 358 349 345 338 333 341 338 338 340 341 342 343 345 346 344 345 344
111 115 116 116 111 106 113 122 106 94 95 95 94 137 55 74 69 58 50 69 74 59 43 27 358 4 358 351 345 346 345 350 351 347 341 340 340 342 347 347 347 348 348
112 114 107 112 120 129 116 109 107 94 95 98 113 113 114 102 97 101 97 71 66 55 42 29 14 1 348 345 352 360 352 342 346 348 340 339 337 344 348 349 348 349 348
117 119 119 122 126 116 115 124 109 103 121 122 101 62 92 91 112 109 85 71 58 55 42 44 21 355 339 356 355 1 352 343 343 347 339 334 337 345 352 356 359 358 357
137 127 114 115 122 113 114 109 104 109 110 103 103 97 107 120 101 97 90 76 65 51 37 37 17 348 348 356 359 352 343 342 328 320 328 331 341 348 354 2 2 2 2
131 134 125 117 114 108 111 101 103 110 112 100 98 120 105 103 106 105 105 95 66 50 42 33 7 0 3 9 4 359 346 341 327 326 328 334 345 352 355 3 7 4 4
123 120 120 125 129 126 116 109 110 114 109 119 125 95 90 103 100 102 99 85 72 59 42 19 354 359 8 11 10 4 353 354 351 346 344 351 354 359 358 355 0 10 10
116 119 120 117 116 117 119 121 122 116 117 113 103 102 102 99 98 107 111 93 75 59 44 10 8 13 12 11 7 3 1 360 355 352 353 359 4 5 4 2 357 3 15